Pasco, WA

5:43 PM PDT on April 23, 2017 (GMT -0700)
Tri-Cities

Weather History for KPSC - June, 2013

Change the Weather History Date:

Sunday, June 2, 2013

  Actual Average Record
Temperature  
Mean Temperature 66 °F 65 °F  
Max Temperature 79 °F 79 °F 99 °F (2007)
Min Temperature 52 °F 51 °F 44 °F (1999)
Degree Days  
Heating Degree Days 0 2  
Month to date heating degree days 3 4  
Since 1 June heating degree days 3 4  
Since 1 July heating degree days 4710 4994  
Cooling Degree Days 1 2  
Month to date cooling degree days 1 4  
Year to date cooling degree days 47 37  
Since 1 June cooling degree days 1 4  
Growing Degree Days 16 (Base 50)    
Moisture  
Dew Point 43 °F    
Average Humidity 46    
Maximum Humidity 66    
Minimum Humidity 25    
Precipitation  
Precipitation T in 0.03 in 0.47 in (2010)
Month to date precipitation T 0.06  
Year to date precipitation 1.88 4.31  
Snow  
Snow 0.00 in - - ()
Snow Depth 0.00 in    
Sea Level Pressure  
Sea Level Pressure 29.92 in    
Wind  
Wind Speed 4 mph (NW)    
Max Wind Speed 18 mph    
Max Gust Speed 23 mph    
Visibility 10 miles    
Events Rain    
T = Trace of Precipitation, MM = Missing Value Source: NWS Daily Summary

Daily Weather History Graph

Daily Weather History Graph

Search for Another Location

Airport or City:

Trip Planner

Search our weather history database for the weather conditions in past years. The results will help you decide how hot, cold, wet, or windy it might be!

Date:

Astronomy

Jun. 02, 2013 Rise Set
Actual Time 5:07 AM PDT 8:42 PM PDT
Civil Twilight 4:29 AM PDT 9:19 PM PDT
Nautical Twilight 3:39 AM PDT 10:10 PM PDT
Astronomical Twilight 2:32 AM PDT 11:18 PM PDT
Moon 1:55 AM PDT (6/2) 3:01 PM PDT (6/2)
Length of Visible Light 16h 50m
Length of Day
15h 34m
Waning Crescent, 30% of the Moon is Illuminated
Jun 2
Waning Crescent
Jun 8
New
Jun 16
First Quarter
Jun 23
Full
Jun 29
Last Quarter

Hourly Weather History & Observations

Time (PDT) Temp. Dew Point Humidity Pressure Visibility Wind Dir Wind Speed Gust Speed Precip Events Conditions
12:53 AM 61.0 °F 45.0 °F 56% 29.93 in 10.0 mi Calm Calm - N/A   Clear
1:53 AM 55.0 °F 44.1 °F 67% 29.92 in 10.0 mi North 4.6 mph - N/A   Clear
2:53 AM 55.9 °F 45.0 °F 67% 29.93 in 10.0 mi Calm Calm - N/A   Scattered Clouds
3:53 AM 55.9 °F 45.0 °F 67% 29.93 in 10.0 mi NNW 3.5 mph - N/A   Partly Cloudy
4:53 AM 55.9 °F 45.0 °F 67% 29.92 in 10.0 mi SSW 4.6 mph - N/A   Mostly Cloudy
5:53 AM 57.0 °F 45.0 °F 64% 29.93 in 10.0 mi SW 3.5 mph - N/A   Scattered Clouds
6:53 AM 61.0 °F 45.0 °F 56% 29.94 in 10.0 mi SW 3.5 mph - N/A   Partly Cloudy
7:53 AM 64.9 °F 44.1 °F 47% 29.94 in 10.0 mi WNW 6.9 mph - N/A   Overcast
8:53 AM 66.9 °F 43.0 °F 42% 29.94 in 10.0 mi NW 10.4 mph - N/A   Mostly Cloudy
9:53 AM 70.0 °F 43.0 °F 38% 29.94 in 10.0 mi North 5.8 mph - N/A   Partly Cloudy
10:53 AM 73.0 °F 42.1 °F 33% 29.93 in 10.0 mi NNW 8.1 mph 18.4 mph N/A   Clear
11:53 AM 73.0 °F 41.0 °F 31% 29.92 in 10.0 mi NW 6.9 mph - N/A   Mostly Cloudy
12:53 PM 75.0 °F 39.9 °F 28% 29.91 in 10.0 mi Variable 6.9 mph - N/A   Mostly Cloudy
1:53 PM 75.9 °F 39.9 °F 27% 29.90 in 10.0 mi NW 10.4 mph - N/A   Scattered Clouds
2:53 PM 75.9 °F 39.0 °F 26% 29.88 in 10.0 mi WNW 8.1 mph - N/A   Mostly Cloudy
3:53 PM 77.0 °F 39.9 °F 26% 29.88 in 10.0 mi NNW 6.9 mph - 0.00 in Rain Light Rain
4:53 PM 75.9 °F 39.0 °F 26% 29.88 in 10.0 mi Calm Calm - N/A   Scattered Clouds
5:53 PM 75.9 °F 37.9 °F 25% 29.87 in 10.0 mi Calm Calm - N/A   Overcast
6:53 PM 71.1 °F 46.0 °F 41% 29.88 in 10.0 mi NE 11.5 mph - 0.00 in Rain Light Rain
7:53 PM 72.0 °F 44.1 °F 37% 29.90 in 10.0 mi NE 4.6 mph - 0.00 in   Scattered Clouds
8:53 PM 69.1 °F 46.0 °F 44% 29.92 in 10.0 mi Variable 3.5 mph - N/A   Clear
9:53 PM 64.0 °F 43.0 °F 46% 29.94 in 10.0 mi WNW 6.9 mph - N/A   Clear
10:53 PM 62.1 °F 42.1 °F 48% 29.95 in 10.0 mi WNW 12.7 mph - N/A   Clear
11:53 PM 61.0 °F 42.1 °F 50% 29.96 in 10.0 mi Calm Calm - N/A   Clear